Cambridge, MD

10:27 PM EDT on May 27, 2018 (GMT -0400)
Cambridge-Dorchester

Weather History for KCGE - June, 2013

Change the Weather History Date:

Wednesday, June 19, 2013

  Actual Average (KESN) Record (KESN)
Temperature  
Mean Temperature 68 °F -  
Max Temperature 75 °F 83 °F 95 °F (1952)
Min Temperature 62 °F 62 °F 50 °F (1965)
Cooling Degree Days 4    
Growing Degree Days 18 (Base 50)    
Moisture  
Dew Point 62 °F    
Average Humidity 80    
Maximum Humidity 94    
Minimum Humidity 61    
Precipitation  
Precipitation 0.00 in - - ()
Sea Level Pressure  
Sea Level Pressure 30.01 in    
Wind  
Wind Speed 4 mph (NE)    
Max Wind Speed 9 mph    
Max Gust Speed -    
Visibility 9 miles    
Events      
Averages and records for this station are not official NWS values.
T = Trace of Precipitation, MM = Missing Value Source: NWS Daily Summary

Daily Weather History Graph

Daily Weather History Graph

Search for Another Location

Airport or City:

Astronomy

Jun. 19, 2013 Rise Set
Actual Time 5:39 AM EDT 8:31 PM EDT
Civil Twilight 5:07 AM EDT 9:03 PM EDT
Nautical Twilight 4:27 AM EDT 9:43 PM EDT
Astronomical Twilight 3:42 AM EDT 10:29 PM EDT
Moon 4:23 PM EDT (6/19) 2:20 AM EDT (6/19)
Length of Visible Light 15h 55m
Length of Day
14h 51m
Waxing Gibbous, 80% of the Moon is Illuminated
Jun 19
Waxing Gibbous
Jun 23
Full
Jun 30
Last Quarter
Jul 8
New
Jul 15
First Quarter

Hourly Weather History & Observations

Time (EDT) Temp. Dew Point Humidity Pressure Visibility Wind Dir Wind Speed Gust Speed Precip Events Conditions
12:06 AM 62.6 °F 60.8 °F 94% 29.86 in 10.0 mi Calm Calm - N/A   Clear
12:26 AM 64.4 °F 62.6 °F 94% 29.87 in 10.0 mi NNW 4.6 mph - N/A   Clear
12:46 AM 64.4 °F 60.8 °F 88% 29.87 in 10.0 mi North 5.8 mph - N/A   Clear
1:06 AM 62.6 °F 60.8 °F 94% 29.86 in 10.0 mi North 3.5 mph - N/A   Clear
1:26 AM 62.6 °F 60.8 °F 94% 29.87 in 10.0 mi Calm Calm - N/A   Clear
1:46 AM 62.6 °F 60.8 °F 94% 29.87 in 10.0 mi North 3.5 mph - N/A   Clear
2:06 AM 62.6 °F 59.0 °F 88% 29.87 in 10.0 mi Calm Calm - N/A   Clear
2:26 AM 62.6 °F 59.0 °F 88% 29.87 in 10.0 mi Calm Calm - N/A   Clear
2:46 AM 62.6 °F 59.0 °F 88% 29.88 in 10.0 mi North 5.8 mph - N/A   Clear
3:06 AM 62.6 °F 59.0 °F 88% 29.88 in 10.0 mi North 6.9 mph - N/A   Clear
3:26 AM 62.6 °F 60.8 °F 94% 29.88 in 7.0 mi North 6.9 mph - N/A   Clear
3:46 AM 62.6 °F 60.8 °F 94% 29.88 in 5.0 mi North 6.9 mph - N/A   Clear
4:06 AM 62.6 °F 60.8 °F 94% 29.88 in 5.0 mi North 6.9 mph - N/A   Clear
4:26 AM 62.6 °F 60.8 °F 94% 29.89 in 5.0 mi North 5.8 mph - N/A   Clear
4:46 AM 62.6 °F 60.8 °F 94% 29.89 in 5.0 mi North 6.9 mph - N/A   Clear
5:06 AM 62.6 °F 60.8 °F 94% 29.89 in 5.0 mi North 5.8 mph - N/A   Clear
5:26 AM 64.4 °F 60.8 °F 88% 29.90 in 7.0 mi Calm Calm - N/A   Clear
5:47 AM 64.4 °F 60.8 °F 88% 29.90 in 5.0 mi Calm Calm - N/A   Scattered Clouds
6:07 AM 64.4 °F 62.6 °F 94% 29.91 in 4.0 mi North 5.8 mph - N/A   Scattered Clouds
6:27 AM 64.4 °F 62.6 °F 94% 29.92 in 4.0 mi North 5.8 mph - N/A   Scattered Clouds
6:47 AM 64.4 °F 60.8 °F 88% 29.93 in 5.0 mi North 4.6 mph - N/A   Mostly Cloudy
7:07 AM 68.0 °F 62.6 °F 83% 29.94 in 7.0 mi NNE 4.6 mph - N/A   Scattered Clouds
7:27 AM 68.0 °F 62.6 °F 83% 29.95 in 7.0 mi North 8.1 mph - N/A   Scattered Clouds
7:47 AM 68.0 °F 62.6 °F 83% 29.96 in 7.0 mi NNE 9.2 mph - N/A   Mostly Cloudy
8:07 AM 68.0 °F 62.6 °F 83% 29.97 in 7.0 mi NNE 5.8 mph - N/A   Overcast
8:27 AM 68.0 °F 62.6 °F 83% 29.97 in 5.0 mi NE 6.9 mph - N/A   Overcast
8:47 AM 68.0 °F 62.6 °F 83% 29.99 in 10.0 mi NNE 8.1 mph - N/A   Overcast
9:07 AM 68.0 °F 62.6 °F 83% 30.00 in 10.0 mi NE 6.9 mph - N/A   Overcast
9:27 AM 68.0 °F 62.6 °F 83% 30.01 in 7.0 mi ENE 5.8 mph - N/A   Overcast
9:47 AM 69.8 °F 62.6 °F 78% 30.02 in 10.0 mi Calm Calm - N/A   Mostly Cloudy
10:07 AM 69.8 °F 62.6 °F 78% 30.02 in 10.0 mi NNE 4.6 mph - N/A   Mostly Cloudy
10:27 AM 69.8 °F 62.6 °F 78% 30.03 in 10.0 mi North 5.8 mph - N/A   Overcast
10:47 AM 69.8 °F 62.6 °F 78% 30.03 in 10.0 mi NE 5.8 mph - N/A   Overcast
11:07 AM 69.8 °F 62.6 °F 78% 30.04 in 10.0 mi Calm Calm - N/A   Overcast
11:27 AM 69.8 °F 62.6 °F 78% 30.04 in 10.0 mi North 8.1 mph - N/A   Mostly Cloudy
11:48 AM - - N/A% - - North - - N/A   Unknown
12:02 PM 71.6 °F 62.6 °F 73% 30.05 in - North 4.6 mph - N/A   Unknown
12:48 PM 73.4 °F 62.6 °F 69% 30.06 in 10.0 mi North - - N/A   Scattered Clouds
1:08 PM 73.4 °F 62.6 °F 69% 30.06 in 10.0 mi North - - N/A   Scattered Clouds
1:28 PM 75.2 °F 62.6 °F 65% 30.06 in 10.0 mi North - - N/A   Scattered Clouds
1:39 PM 75.2 °F 62.6 °F 65% 30.06 in 10.0 mi North 5.8 mph - N/A   Scattered Clouds
2:09 PM 75.2 °F 62.6 °F 65% 30.07 in - NNE 6.9 mph - N/A   Unknown
2:27 PM 75.2 °F 62.6 °F 65% 30.07 in 10.0 mi NE 5.8 mph - N/A   Scattered Clouds
2:49 PM 75.2 °F 62.6 °F 65% 30.07 in 10.0 mi North 4.6 mph - N/A   Unknown
3:09 PM 73.4 °F 62.6 °F 69% 30.07 in 10.0 mi ESE 4.6 mph - N/A   Mostly Cloudy
3:29 PM 73.4 °F 62.6 °F 69% 30.07 in 10.0 mi Calm Calm - N/A   Mostly Cloudy
3:49 PM 73.4 °F 62.6 °F 69% 30.07 in 10.0 mi Calm Calm - N/A   Scattered Clouds
4:09 PM 75.2 °F 62.6 °F 65% 30.07 in 10.0 mi North 4.6 mph - N/A   Scattered Clouds
4:29 PM 75.2 °F 62.6 °F 65% 30.07 in 10.0 mi ESE 3.5 mph - N/A   Scattered Clouds
4:49 PM 73.4 °F 60.8 °F 65% 30.07 in 10.0 mi East 3.5 mph - N/A   Mostly Cloudy
5:09 PM 75.2 °F 62.6 °F 65% 30.07 in 10.0 mi East 3.5 mph - N/A   Scattered Clouds
5:29 PM 75.2 °F 60.8 °F 61% 30.07 in 10.0 mi Calm Calm - N/A   Clear
5:49 PM 75.2 °F 60.8 °F 61% 30.07 in 10.0 mi ENE 4.6 mph - N/A   Scattered Clouds
6:09 PM 75.2 °F 62.6 °F 65% 30.07 in 10.0 mi East 3.5 mph - N/A   Scattered Clouds
6:29 PM 75.2 °F 60.8 °F 61% 30.08 in 10.0 mi ENE 3.5 mph - N/A   Clear
6:49 PM 75.2 °F 60.8 °F 61% 30.08 in 10.0 mi Calm Calm - N/A   Clear
7:09 PM 75.2 °F 60.8 °F 61% 30.09 in 10.0 mi Calm Calm - N/A   Clear
7:29 PM 71.6 °F 62.6 °F 73% 30.09 in 10.0 mi Calm Calm - N/A   Clear
7:49 PM 69.8 °F 62.6 °F 78% 30.10 in 10.0 mi Calm Calm - N/A   Clear
8:09 PM 69.8 °F 62.6 °F 78% 30.10 in 10.0 mi SE 4.6 mph - N/A   Mostly Cloudy
8:29 PM 69.8 °F 62.6 °F 78% 30.10 in 10.0 mi SE 3.5 mph - N/A   Mostly Cloudy
8:49 PM 69.8 °F 62.6 °F 78% 30.11 in 10.0 mi ESE 4.6 mph - N/A   Mostly Cloudy
9:09 PM 69.8 °F 64.4 °F 83% 30.12 in 10.0 mi SE 3.5 mph - N/A   Clear
9:29 PM 68.0 °F 62.6 °F 83% 30.12 in 10.0 mi SE 4.6 mph - N/A   Clear
9:49 PM 66.2 °F 62.6 °F 88% 30.13 in 10.0 mi SE 4.6 mph - N/A   Clear
10:09 PM 64.4 °F 60.8 °F 88% 30.14 in 10.0 mi SE 3.5 mph - N/A   Clear
10:29 PM 64.4 °F 60.8 °F 88% 30.15 in 10.0 mi SSE 3.5 mph - N/A   Clear
10:49 PM 62.6 °F 60.8 °F 94% 30.15 in 10.0 mi Calm Calm - N/A   Clear
11:10 PM 62.6 °F 59.0 °F 88% 30.15 in 10.0 mi SE 3.5 mph - N/A   Clear
11:30 PM 62.6 °F 59.0 °F 88% 30.16 in 10.0 mi SE 4.6 mph - N/A   Clear
11:50 PM 62.6 °F 59.0 °F 88% 30.16 in 10.0 mi SE 3.5 mph - N/A   Clear